GW5131 Weather Reports


Display with metric or nautical units.
time (UTC)temp
F
wind
direction
speed
MPH
gust
MPH
rain 1hr
in
rain 24hr
in
rain mn
in
humidity
%
barometer
mb
20260509205334 68 72 0.0 1.0 0.00 0.00 0.00 57 974.5
20260509204831 69 150 1.0 3.0 0.00 0.00 0.00 56 974.4
20260509204328 69 259 1.0 3.0 0.00 0.00 0.00 53 974.2
20260509203824 68 239 1.0 2.0 0.00 0.00 0.00 57 974.4
20260509203321 68 176 0.0 3.0 0.00 0.00 0.00 54 974.4
20260509202817 68 99 1.0 2.0 0.00 0.00 0.00 57 974.2
20260509202314 68 95 2.0 4.0 0.00 0.00 0.00 54 974.3
20260509201813 68 101 1.0 2.0 0.00 0.00 0.00 59 974.3
20260509201310 68 123 2.0 2.0 0.00 0.00 0.00 54 974.2
20260509200806 69 40 1.0 4.0 0.00 0.00 0.00 56 974.2
20260509200302 69 59 1.0 2.0 0.00 0.00 0.00 56 974.2
20260509195758 69 1 3.0 4.0 0.00 0.00 0.00 57 974.4
20260509195253 68 42 0.0 1.0 0.00 0.00 0.00 56 974.6
20260509194748 68 36 3.0 8.0 0.00 0.00 0.00 56 974.6
20260509194244 69 95 1.0 2.0 0.00 0.00 0.00 54 974.5
20260509193741 69 99 3.0 4.0 0.00 0.00 0.00 53 974.6
20260509193241 68 112 0.0 3.0 0.00 0.00 0.00 60 974.3
20260509192738 68 293 1.0 2.0 0.00 0.00 0.00 55 974.5
20260509192238 68 309 1.0 3.0 0.00 0.00 0.00 54 974.5
20260509191734 67 119 3.0 3.0 0.00 0.00 0.00 59 974.6
20260509191230 67 176 4.0 4.0 0.00 0.00 0.00 54 974.6
20260509190726 68 148 5.0 6.0 0.00 0.00 0.00 56 974.5
20260509190223 68 159 2.0 7.0 0.00 0.00 0.00 55 974.4
20260509185721 69 182 0.0 6.0 0.00 0.00 0.00 52 974.3
20260509185217 70 103 3.0 3.0 0.00 0.00 0.00 57 974.3
20260509184715 69 92 2.0 3.0 0.00 0.00 0.00 61 974.5
20260509184212 68 17 2.0 4.0 0.00 0.00 0.00 56 974.4
20260509183708 68 139 4.0 4.0 0.00 0.00 0.00 59 974.4
20260509183203 68 231 4.0 6.0 0.00 0.00 0.00 58 974.6
20260509182659 68 110 2.0 4.0 0.00 0.00 0.00 56 974.4
20260509182157 67 87 2.0 6.0 0.00 0.00 0.00 57 974.6
20260509181654 67 19 2.0 3.0 0.00 0.00 0.00 59 974.6
20260509181152 67 339 2.0 4.0 0.00 0.00 0.00 58 974.6
20260509180648 67 202 2.0 4.0 0.00 0.00 0.00 58 974.6
20260509180144 68 297 1.0 4.0 0.00 0.00 0.00 62 974.7
20260509175641 67 44 3.0 4.0 0.00 0.00 0.00 59 974.6
20260509175138 67 296 1.0 9.0 0.00 0.00 0.00 59 974.7
20260509174633 67 264 5.0 10.0 0.00 0.00 0.00 56 974.7
20260509174128 67 348 2.0 7.0 0.00 0.00 0.00 56 974.9
20260509173625 66 196 3.0 6.0 0.00 0.00 0.00 58 974.8
20260509173121 65 102 2.0 3.0 0.00 0.00 0.00 61 975.0
20260509172618 65 182 1.0 4.0 0.00 0.00 0.00 62 974.7
20260509172114 65 34 3.0 7.0 0.00 0.00 0.00 59 975.2
20260509171609 66 189 4.0 4.0 0.00 0.00 0.00 58 975.1
20260509171106 65 119 5.0 7.0 0.00 0.00 0.00 59 975.0
20260509170602 65 105 3.0 8.0 0.00 0.00 0.00 59 975.1
20260509170058 65 110 3.0 9.0 0.00 0.00 0.00 57 975.0
20260509165557 65 119 4.0 7.0 0.00 0.00 0.00 61 975.2
20260509165052 64 108 3.0 7.0 0.00 0.00 0.00 57 975.2
20260509164549 65 113 3.0 6.0 0.00 0.00 0.00 62 975.2
20260509164044 65 72 3.0 7.0 0.00 0.00 0.00 56 975.2
20260509163543 64 62 4.0 6.0 0.00 0.00 0.00 57 975.3
20260509163038 65 127 2.0 4.0 0.00 0.00 0.00 57 975.3
20260509162535 64 225 2.0 8.0 0.00 0.00 0.00 55 975.1
20260509162031 64 230 2.0 6.0 0.00 0.00 0.00 58 975.3
20260509161528 64 108 5.0 7.0 0.00 0.00 0.00 59 975.3
20260509161027 64 120 2.0 2.0 0.00 0.00 0.00 60 975.3
20260509160523 64 233 3.0 4.0 0.00 0.00 0.00 54 975.4
20260509160019 65 206 2.0 3.0 0.00 0.00 0.00 54 975.3
20260509155515 63 107 4.0 6.0 0.00 0.00 0.00 57 975.3
20260509155011 63 152 1.0 2.0 0.00 0.00 0.00 58 975.2
20260509154508 63 154 2.0 3.0 0.00 0.00 0.00 57 975.2
20260509154006 63 342 1.0 2.0 0.00 0.00 0.00 58 975.2
20260509153502 63 343 1.0 1.0 0.00 0.00 0.00 59 975.2
20260509152959 63 338 0.0 2.0 0.00 0.00 0.00 60 975.3
20260509152455 62 167 0.0 1.0 0.00 0.00 0.00 61 975.1
20260509151952 62 168 1.0 1.0 0.00 0.00 0.00 58 975.1
20260509151448 62 168 2.0 2.0 0.00 0.00 0.00 57 975.1
20260509150947 62 136 1.0 2.0 0.00 0.00 0.00 55 975.3
20260509150443 62 136 0.0 2.0 0.00 0.00 0.00 55 975.4
20260509145943 62 97 1.0 2.0 0.00 0.00 0.00 55 975.6
20260509145442 61 161 1.0 4.0 0.00 0.00 0.00 56 975.6
20260509144938 62 126 1.0 3.0 0.00 0.00 0.00 58 975.5
20260509144435 62 98 1.0 4.0 0.00 0.00 0.00 60 975.5
20260509143932 62 37 0.0 1.0 0.00 0.00 0.00 61 975.7
20260509143429 62 135 0.0 0.0 0.00 0.00 0.00 59 975.5
20260509142925 62 106 1.0 1.0 0.00 0.00 0.00 61 975.4
20260509142422 62 40 1.0 2.0 0.00 0.00 0.00 58 975.4
20260509141918 62 128 1.0 1.0 0.00 0.00 0.00 63 975.2
20260509141415 62 55 1.0 2.0 0.00 0.00 0.00 61 975.2
20260509140912 62 80 2.0 3.0 0.00 0.00 0.00 61 975.2
20260509140408 61 65 1.0 2.0 0.00 0.00 0.00 60 975.3
20260509135906 61 55 1.0 2.0 0.00 0.00 0.00 66 975.2
20260509135403 61 66 2.0 3.0 0.00 0.00 0.00 67 975.3
20260509134901 60 56 2.0 3.0 0.00 0.00 0.00 67 975.2
20260509134358 60 58 1.0 2.0 0.00 0.00 0.00 67 975.2
20260509133855 60 52 2.0 2.0 0.00 0.00 0.00 68 975.4
20260509133351 59 64 1.0 2.0 0.00 0.00 0.00 68 975.2
20260509132850 57 66 2.0 3.0 0.00 0.00 0.00 72 975.3
20260509132348 57 49 2.0 3.0 0.00 0.00 0.00 70 975.4
20260509131845 58 59 3.0 3.0 0.00 0.00 0.00 72 975.5
20260509131342 57 66 0.0 2.0 0.00 0.00 0.00 73 975.4
20260509130838 57 57 0.0 2.0 0.00 0.00 0.00 75 975.6
20260509130334 56 64 1.0 1.0 0.00 0.00 0.00 79 975.6
20260509125831 55 86 0.0 1.0 0.00 0.00 0.00 81 975.8
20260509125327 55 86 0.0 0.0 0.00 0.00 0.00 83 975.6
20260509124823 55 193 0.0 0.0 0.00 0.00 0.00 83 975.5
20260509124320 55 193 0.0 0.0 0.00 0.00 0.00 83 975.6
20260509123819 55 193 0.0 0.0 0.00 0.00 0.00 87 975.7
20260509123316 54 193 0.0 0.0 0.00 0.00 0.00 86 975.7
20260509122811 53 193 0.0 0.0 0.00 0.00 0.00 86 975.5
20260509122308 53 193 0.0 0.0 0.00 0.00 0.00 88 975.5
20260509121805 53 193 0.0 0.0 0.00 0.00 0.00 88 975.6
20260509121302 52 193 0.0 0.0 0.00 0.00 0.00 90 975.6
20260509120800 51 193 0.0 0.0 0.00 0.00 0.00 91 975.7
20260509120258 51 193 0.0 0.0 0.00 0.00 0.00 92 975.6
20260509115756 51 193 0.0 0.0 0.00 0.00 0.00 92 975.5
20260509115252 51 193 0.0 0.0 0.00 0.00 0.00 93 975.4
20260509114750 50 193 0.0 0.0 0.00 0.00 0.00 94 975.6
20260509114249 50 193 0.0 0.0 0.00 0.00 0.00 95 975.8
20260509113747 49 193 0.0 0.0 0.00 0.00 0.00 96 975.6
20260509113244 49 193 0.0 0.0 0.00 0.00 0.00 96 975.6
20260509112741 49 193 0.0 0.0 0.00 0.00 0.00 96 975.7
20260509112238 49 193 0.0 0.0 0.00 0.00 0.00 97 975.5
20260509111735 49 193 0.0 0.0 0.00 0.00 0.00 97 975.4
20260509111232 49 193 0.0 0.0 0.00 0.00 0.00 97 975.4
20260509110729 49 193 0.0 0.0 0.00 0.00 0.00 96 975.5
20260509110226 49 193 0.0 0.0 0.00 0.00 0.00 96 975.5
20260509105724 49 193 0.0 0.0 0.00 0.00 0.00 96 975.6
20260509105221 48 193 0.0 0.0 0.00 0.00 0.00 97 975.6
20260509104718 48 193 0.0 0.0 0.00 0.00 0.00 97 975.4
20260509104215 48 193 0.0 0.0 0.00 0.00 0.00 97 975.6
20260509103714 48 193 0.0 0.0 0.00 0.00 0.00 96 975.5
20260509103210 48 193 0.0 0.0 0.00 0.00 0.00 96 975.5
20260509102709 48 193 0.0 0.0 0.00 0.00 0.00 96 975.4
20260509102205 48 193 0.0 0.0 0.00 0.00 0.00 95 975.5
20260509101701 48 193 0.0 0.0 0.00 0.00 0.00 95 975.5
20260509101158 48 193 0.0 0.0 0.00 0.00 0.00 95 975.3
20260509100655 48 193 0.0 0.0 0.00 0.00 0.00 95 975.4
20260509100152 49 193 0.0 0.0 0.00 0.00 0.00 96 975.2
20260509095649 49 193 0.0 0.0 0.00 0.00 0.00 95 975.3
20260509095146 49 193 0.0 0.0 0.00 0.00 0.00 95 975.3
20260509094642 49 193 0.0 0.0 0.00 0.00 0.00 95 975.5
20260509094140 49 193 0.0 0.0 0.00 0.00 0.00 96 975.3
20260509093638 49 193 0.0 0.0 0.00 0.00 0.00 96 975.5
20260509093135 49 193 0.0 0.0 0.00 0.00 0.00 96 975.5
20260509092633 49 193 1.0 1.0 0.00 0.00 0.00 96 975.4
20260509092131 50 193 0.0 0.0 0.00 0.00 0.00 96 975.3
20260509091629 50 193 0.0 0.0 0.00 0.00 0.00 96 975.5
20260509091125 50 193 0.0 0.0 0.00 0.00 0.00 96 975.3
20260509090623 50 193 0.0 0.0 0.00 0.00 0.00 95 975.6
20260509090120 50 193 0.0 0.0 0.00 0.00 0.00 95 975.3
20260509085617 50 193 0.0 0.0 0.00 0.00 0.00 95 975.3
20260509085113 0 0.0 0.0 0.00 0.00 0.00 975.2
20260509084610 0 0.0 0.0 0.00 0.00 0.00 975.6
20260509084107 0 0.0 0.0 0.00 0.00 0.00 975.7
20260509083605 0 0.0 0.0 0.00 0.00 0.00 975.4
20260509083101 0 0.0 0.0 0.00 0.00 0.00 975.3
20260509082559 0 0.0 0.0 0.00 0.00 0.00 975.5
20260509082055 0 0.0 0.0 0.00 0.00 0.00 975.4
20260509081552 0 0.0 0.0 0.00 0.00 0.00 975.4
20260509081049 0 0.0 0.0 0.00 0.00 0.00 975.7
20260509080547 0 0.0 0.0 0.00 0.00 0.00 975.2
20260509080045 0 0.0 0.0 0.00 0.00 0.00 975.4
20260509075542 0 0.0 0.0 0.00 0.00 0.00 975.4
20260509075040 50 193 0.0 0.0 0.00 0.00 0.00 94 975.5
20260509074537 50 193 0.0 0.0 0.00 0.00 0.00 94 975.5
20260509074033 0 0.0 0.0 0.00 0.00 0.00 975.5
20260509073530 0 0.0 0.0 0.00 0.00 0.00 975.6
20260509073026 0 0.0 0.0 0.00 0.00 0.00 975.4
20260509072523 0 0.0 0.0 0.00 0.00 0.00 975.3
20260509072020 0 0.0 0.0 0.00 0.00 0.00 975.5
20260509071517 0 0.0 0.0 0.00 0.00 0.00 975.5
20260509071014 0 0.0 0.0 0.00 0.00 0.00 975.5
20260509070511 0 0.0 0.0 0.00 0.00 0.00 975.4
20260509070008 0 0.0 0.0 0.00 0.00 0.00 975.3
20260509065503 0 0.0 0.0 0.00 0.00 0.00 975.6
20260509064959 0 0.0 0.0 0.00 0.00 0.00 975.6
20260509064457 0 0.0 0.0 0.00 0.00 0.00 975.5
20260509063955 0 0.0 0.0 0.00 0.00 0.00 975.6
20260509063450 0 0.0 0.0 0.00 0.00 0.00 975.6
20260509062948 0 0.0 0.0 0.00 0.00 0.00 975.6
20260509062445 0 0.0 0.0 0.00 0.00 0.00 975.7
20260509061942 0 0.0 0.0 0.00 0.00 0.00 975.6
20260509061439 0 0.0 0.0 0.00 0.00 0.00 975.6
20260509060936 0 0.0 0.0 0.00 0.00 0.00 975.7
20260509060434 0 0.0 0.0 0.00 0.00 0.00 975.8
20260509055929 0 0.0 0.0 0.00 0.00 0.00 975.8
20260509055424 0 0.0 0.0 0.00 0.00 0.00 976.0
20260509054921 0 0.0 0.0 0.00 0.00 0.00 976.0
20260509054418 0 0.0 0.0 0.00 0.00 0.00 975.9
20260509053917 50 193 0.0 0.0 0.00 0.00 0.00 92 976.1
20260509053414 50 193 0.0 0.0 0.00 0.00 0.00 92 975.9
20260509052906 0 0.0 0.0 0.00 0.00 0.00 975.8
20260509052403 0 0.0 0.0 0.00 0.00 0.00 976.0
20260509051901 0 0.0 0.0 0.00 0.00 0.00 975.9
20260509051359 0 0.0 0.0 0.00 0.00 0.00 976.0
20260509050855 0 0.0 0.0 0.00 0.00 0.00 976.1
20260509050352 0 0.0 0.0 0.00 0.00 0.00 976.0
20260509045848 0 0.0 0.0 0.00 0.00 0.00 976.1
20260509045346 0 0.0 0.0 0.00 0.00 0.00 976.2
20260509044843 0 0.0 0.0 0.00 0.00 0.00 976.0
20260509044340 0 0.0 0.0 0.00 0.00 0.00 976.2
20260509043836 0 0.0 0.0 0.00 0.00 0.00 976.1
20260509043332 0 0.0 0.0 0.00 0.00 0.00 976.2
20260509042828 0 0.0 0.0 0.00 0.00 0.00 976.3
20260509042325 0 0.0 0.0 0.00 0.00 0.00 976.3
20260509041822 0 0.0 0.0 0.00 0.00 0.00 976.4
20260509041319 0 0.0 0.0 0.00 0.00 0.00 976.1
20260509040817 0 0.0 0.0 0.00 0.00 0.00 976.3
20260509040314 0 0.0 0.0 0.00 0.00 0.00 976.4
20260509035811 0 0.0 0.0 0.00 0.00 0.00 976.6
20260509035309 0 0.0 0.0 0.00 0.00 0.00 976.5
20260509034804 0 0.0 0.0 0.00 0.00 0.00 976.5
20260509034303 0 0.0 0.0 0.00 0.00 0.00 976.3
20260509033759 0 0.0 0.0 0.00 0.00 0.00 976.7
20260509033256 0 0.0 0.0 0.00 0.00 0.00 976.5
20260509032753 0 0.0 0.0 0.00 0.00 0.00 976.5
20260509032250 0 0.0 0.0 0.00 0.00 0.00 976.6
20260509031748 0 0.0 0.0 0.00 0.00 0.00 976.5
20260509031245 50 193 0.0 0.0 0.00 0.00 0.00 89 976.5
20260509030743 50 193 0.0 0.0 0.00 0.00 0.00 89 976.6
20260509030240 50 193 0.0 0.0 0.00 0.00 0.00 90 976.6
20260509025737 50 193 0.0 0.0 0.00 0.00 0.00 89 976.8
20260509025232 50 193 0.0 0.0 0.00 0.00 0.00 89 976.8
20260509024728 51 193 0.0 0.0 0.00 0.00 0.00 88 976.7
20260509024224 50 193 0.0 0.0 0.00 0.00 0.00 85 976.7
20260509023722 50 193 0.0 0.0 0.00 0.00 0.00 90 976.7
20260509023219 50 193 0.0 0.0 0.00 0.00 0.00 91 976.9
20260509022714 50 193 0.0 0.0 0.00 0.00 0.00 87 976.7
20260509022213 51 193 0.0 0.0 0.00 0.00 0.00 90 976.8
20260509021709 51 193 0.0 0.0 0.00 0.00 0.00 90 976.6
20260509021207 51 193 0.0 0.0 0.00 0.00 0.00 88 976.8
20260509020705 52 193 0.0 0.0 0.00 0.00 0.00 87 976.5
20260509020201 52 193 0.0 0.0 0.00 0.00 0.00 88 976.4
20260509015700 53 193 0.0 0.0 0.00 0.00 0.00 87 976.4
20260509015158 53 193 0.0 0.0 0.00 0.00 0.00 86 976.5
20260509014654 53 193 0.0 0.0 0.00 0.00 0.00 85 976.5
20260509014150 53 193 0.0 0.0 0.00 0.00 0.00 85 976.4
20260509013647 53 193 0.0 0.0 0.00 0.00 0.00 85 976.5
20260509013143 53 193 0.0 0.0 0.00 0.00 0.00 85 976.5
20260509012640 53 193 0.0 0.0 0.00 0.00 0.00 81 976.4
20260509012137 53 193 0.0 0.0 0.00 0.00 0.00 80 976.4
20260509011635 53 193 0.0 0.0 0.00 0.00 0.00 81 976.6
20260509011132 54 193 0.0 0.0 0.00 0.00 0.00 83 976.5
20260509010629 54 193 0.0 0.0 0.00 0.00 0.00 78 976.5
20260509010125 53 193 0.0 0.0 0.00 0.00 0.00 81 976.3
20260509005624 54 193 0.0 0.0 0.00 0.00 0.00 83 976.4
20260509005119 54 193 0.0 1.0 0.00 0.00 0.00 82 976.2
20260509004615 54 211 0.0 0.0 0.00 0.00 0.00 77 976.0
20260509004112 54 211 0.0 0.0 0.00 0.00 0.00 79 976.2
20260509003611 54 215 0.0 0.0 0.00 0.00 0.00 74 975.9
20260509003108 54 222 0.0 1.0 0.00 0.00 0.00 82 975.8
20260509002605 54 222 0.0 0.0 0.00 0.00 0.00 77 976.2
20260509002102 55 222 0.0 0.0 0.00 0.00 0.00 77 975.9
20260509001600 55 222 0.0 0.0 0.00 0.00 0.00 72 976.1
20260509001055 55 222 0.0 0.0 0.00 0.00 0.00 74 976.2
20260509000554 56 222 0.0 0.0 0.00 0.00 0.00 67 976.2
20260509000050 56 222 0.0 1.0 0.00 0.00 0.00 68 976.5
20260508235548 57 222 0.0 0.0 0.00 0.00 0.00 68 976.5
20260508235044 58 222 0.0 0.0 0.00 0.00 0.00 65 976.2
20260508234541 58 220 0.0 0.0 0.00 0.00 0.00 64 976.3
20260508234038 59 202 0.0 0.0 0.00 0.00 0.00 62 976.1
20260508233537 59 202 0.0 0.0 0.00 0.00 0.00 63 976.1
20260508233034 60 218 0.0 1.0 0.00 0.00 0.00 56 976.0
20260508232531 61 226 0.0 1.0 0.00 0.00 0.00 58 976.1
20260508232028 62 237 0.0 1.0 0.00 0.00 0.00 57 976.1
20260508231526 62 254 1.0 2.0 0.00 0.00 0.00 50 976.1
20260508231023 63 247 0.0 2.0 0.00 0.00 0.00 43 976.1
20260508230520 64 223 1.0 3.0 0.00 0.00 0.00 46 976.1
20260508230016 63 235 1.0 2.0 0.00 0.00 0.00 45 976.1
20260508225513 63 258 1.0 2.0 0.00 0.00 0.00 45 976.2
20260508225010 63 266 3.0 3.0 0.00 0.00 0.00 53 976.1
20260508224508 63 250 2.0 2.0 0.00 0.00 0.00 52 976.1
20260508224005 65 254 0.0 2.0 0.00 0.00 0.00 57 976.1
20260508223503 64 240 0.0 2.0 0.00 0.00 0.00 45 976.1
20260508223000 63 235 1.0 1.0 0.00 0.00 0.00 48 976.3
20260508222457 63 240 1.0 2.0 0.00 0.00 0.00 55 976.3
20260508221953 64 123 0.0 2.0 0.00 0.00 0.00 44 976.2
20260508221449 64 253 2.0 3.0 0.00 0.00 0.00 46 976.2
20260508220946 65 131 1.0 2.0 0.00 0.00 0.00 40 976.2
20260508220443 66 23 1.0 2.0 0.00 0.00 0.00 39 976.1
20260508215938 66 265 0.0 4.0 0.00 0.00 0.00 46 976.2
20260508215436 66 109 1.0 3.0 0.00 0.00 0.00 41 976.0
20260508214932 68 247 1.0 7.0 0.00 0.00 0.00 37 976.1
20260508214431 67 64 2.0 4.0 0.00 0.00 0.00 39 976.3
20260508213926 66 304 2.0 2.0 0.00 0.00 0.00 40 976.1
20260508213424 65 105 1.0 3.0 0.00 0.00 0.00 42 976.5
20260508212919 66 10 0.0 1.0 0.00 0.00 0.00 39 976.4
20260508212416 66 189 0.0 3.0 0.00 0.00 0.00 40 976.5
20260508211912 66 342 1.0 9.0 0.00 0.00 0.00 40 976.3
20260508211407 67 126 1.0 2.0 0.00 0.00 0.00 40 976.5
20260508210905 68 214 1.0 4.0 0.00 0.00 0.00 38 976.5
20260508210401 67 19 1.0 3.0 0.00 0.00 0.00 38 976.5
20260508205858 68 51 2.0 4.0 0.00 0.00 0.00 36 976.7